Terug naar catalogus

SL-14 DEB

ActiefPO
NORAD 25246·DEBRIS·🇷🇺 Russia

Gelanceerd Aug 18, 1987 vanaf Plesetsk Cosmodrome

Loading…

Volgende Passages (komende 24 uur)

TLE

VersSource: Space-Track

Epoch: Sep 14, 2026, 09:33 UTC

1 25246U 87068BP  26257.39825624  .00000742  00000-0  33576-3 0  9999
2 25246  82.2473 233.4469 0079545 121.6009  31.2392 14.19234048469440

Volg SL-14 DEB in realtime met AllMySat

Download on the App Store